Warning: Javascript must be enabled to use all the features on this page!


Page Loading - Please Wait...

Click to hideNews Bulletins

Peak Streamflow for the Nation

USGS 05340500 ST. CROIX RIVER AT ST. CROIX FALLS, WI

Polk County, Wisconsin
Hydrologic Unit Code 07030005
Latitude  45°24'25", Longitude  92°38'49" NAD83
Drainage area 6,240  square miles
Gage datum 690.04 feet above NAVD88
Output formats
Table
Graph
Tab-separated file
peakfq (watstore) format
Reselect output format
Water
Year
Date Gage
Height
(feet)
Stream-
flow
(cfs)
1902 1902-07-10   12,9001,5
1903 1903-04-12   20,2001,5
1904 1903-10-12   23,6001,5
1905 1904-10-22   18,7001,5
1910 1910-03-21   9,8701,5
1911 1911-05-23   7,5001,5
1912 1912-05-06   33,5001,5
1913 1913-05-22   8,9801,5
1914 1914-06-29   15,3001,5
1915 1915-06-22   15,1001,5
1916 1916-04-23   35,1001,5
1917 1917-04-05   17,7001,5
1918 1918-06-03   10,1001,5
1919 1919-04-12   14,9001,5
1920 1920-03-26   35,8001,5
1921 1921-04-09   11,5001,5
1922 1922-04-10   18,6001,5
1923 1923-04-28   8,8801,5
1924 1924-05-15   9,8001,5
1925 1925-04-26   5,8601,5
1926 1926-09-22   6,1401,5
1927 1927-03-18   27,6001,5
1928 1928-03-30   21,8001,5
1929 1929-04-01   16,9001,5
1930 1930-05-16   17,5001,5
1931 1931-06-26   16,6001,5
1932 1932-04-10   18,5001,5
1933 1933-05-04   7,0601,5
1934 1934-04-12   12,1001,5
1935 1935-03-25   26,4001,5
1936 1936-04-15   31,0001,5
1937 1937-04-15   12,5001,5
1938 1938-05-09   30,0001,5
1939 1939-03-31   24,8001,5
1940 1940-05-18 7.12 14,3005
1941 1941-04-08 13.88 29,6005
1942 1942-05-16 8.97 18,6005
1943 1943-06-04 13.42 28,5005
1944 1944-06-07 17.20 37,1005
1945 1945-03-20 20.53 44,6005
1946 1946-06-27 16.50 35,5005
1947 1947-04-14 8.90 18,4005
1948 1948-04-10 8.93 18,5005
1949 1949-05-08 11.26 23,8005
1950 1950-05-08 25.19 54,9005
1951 1951-04-15 15.70 33,7005
1952 1952-07-23 19.80 43,0005
1953 1953-05-24 15.20 32,6005
1954 1954-05-04 20.40 44,4005
1955 1955-04-04 10.48 22,0005
1956 1956-04-07 14.77 31,6005
1957 1957-06-24 12.19 25,8005
1958 1958-07-04 13.25 28,2005
1959 1959-06-03 7.16 14,5005
1960 1960-04-03 8.13 16,7005
1961 1961-05-18 12.95 27,5005
1962 1962-05-26 14.12 30,1005
1963 1963-03-30 5.40 10,5005
1964 1964-05-09 13.05 27,7005
1965 1965-04-18 20.98 45,7005
1966 1966-03-18 16.53 35,6005
1967 1967-04-02 15.64 33,6005
1968 1968-06-24 9.49 19,7005
1969 1969-04-13 19.19 41,6005
1970 1970-04-27 9.61 20,0005
1971 1971-04-14 16.00 34,4005
1972 1972-07-25 20.09 43,7005
1973 1973-03-18 11.89 25,1005
1974 1974-06-13 12.29 26,0005
1975 1975-04-25 15.94 34,2005
1976 1976-04-03 25.19 35,6005
1977 1977-09-26 7.63 15,6005
1978 1978-04-09 12.58 26,7005
1979 1979-04-23 15.99 34,4005
1980 1980-04-07 7.10 13,4005
1981 1981-06-16 12.07 25,6005
1982 1982-04-19 14.34 30,6005
1983 1983-03-09 11.30 23,7005
1984 1984-06-13 16.45 35,4005
1985 1985-04-26 12.96 27,6005
1986 1986-05-14 17.17 37,0005
1987 1986-10-21 5.55 9,5305
1988 1988-04-07 6.39 11,6005
1989 1989-04-09 8.972 18,1005
1990 1990-05-02 8.09 15,9005
1991 1991-05-09 11.97 25,3005
1992 1992-04-24 10.85 22,6005
1993 1993-06-27 10.08 20,7005
1994 1994-04-30 10.33 21,3005
1995 1995-03-21 14.60 31,2005
1996 1996-04-22 16.672 35,9005
1997 1997-04-08 19.14 41,5005
1998 1998-04-04 9.20 17,8005
1999 1999-04-09 7.99 14,8005
2000 2000-03-06 7.37 13,3005
2001 2001-04-25 25.88 60,9005
2002 2002-04-15 15.05 32,5005
2003 2003-05-12 11.15 22,6005
2004 2004-06-02 10.79 21,7005
2005 2005-04-03 14.51 31,1005
2006 2005-10-08 12.39 25,8005
2007 2007-04-03 8.23 15,4005
2008 2008-04-28 11.98 24,7005
2009 2009-03-27 11.56 23,7005
2010 2010-03-17 11.03 22,3005
2011 2010-10-30 17.80 39,5005
2012 2012-05-31 16.54 37,2005
2013 2013-05-02 9.86 19,4005
2014 2014-04-15 15.24 32,9005
2015 2015-05-20 6.84 12,0005
2016 2016-07-15 23.08 52,4005
2017 2017-05-23 9.17 17,7005
2018 2018-06-20 17.12 35,1005
2019 2019-05-25 12.78 26,7005
2020 2019-10-03 14.83 31,9005
?
  Peak Gage-Height Qualification Codes.
?
  Peak Streamflow Qualification Codes.